Regional Weather Roundup
Issued by NWS Charleston, WV

Home | Current Version | Previous Version | Text Only | Print | Product List | Glossary Off
Versions: 1 2 3 4 5 6 7 8 9 10 11 12 13 14 15 16 17 18 19 20 21 22 23 24 25 26 27 28 29 30 31 32 33 34 35 36 37 38 39 40 41 42 43 44 45 46 47 48 49 50

000
ASUS41 KRLX 051510
RWRRLX
West Virginia Regional Weather Roundup
National Weather Service Charleston WV
1000 AM EST THU MAR 05 2015

Note: "fair" indicates few or no clouds below 12,000 feet with no
significant weather and/or obstructions to visibility.

WVZ003-051600-
Northern Panhandle of West Virginia

CITY           SKY/WX    TMP DP  RH WIND       PRES   REMARKS
WHEELING       MIX PCPN  15   6  67 N8        30.24R WCI   4
$$

WVZ009-051600-
Northwest West Virginia

CITY           SKY/WX    TMP DP  RH WIND       PRES   REMARKS
PARKERSBURG    LGT SNOW  18  14  84 VRB6      30.31R VSB 1   WCI  10
$$

WVZ006-051600-
Western West Virginia

CITY           SKY/WX    TMP DP  RH WIND       PRES   REMARKS
HUNTINGTON     HVY SNOW  19  17  92 N8        30.24F VSB 1/4 WCI   9
$$

WVZ015-051600-
West Central West Virginia

CITY           SKY/WX    TMP DP  RH WIND       PRES   REMARKS
CHARLESTON     LGT SNOW  23  19  85 N8        30.23R VSB 1
$$

WVZ022-031-051600-
North Central West Virginia

CITY           SKY/WX    TMP DP  RH WIND       PRES   REMARKS
CLARKSBURG     SNOW     N/A N/A N/A N9        30.22R VSB 1/2
MORGANTOWN     NOT AVBL
$$

WVZ025-035-042-045-051600-
Southern West Virginia

CITY           SKY/WX    TMP DP  RH WIND       PRES   REMARKS
BECKLEY        SNOW      22  19  89 N12       30.07S VSB 1/2
LOGAN          SNOW      21  21 100 N7        30.12F VSB 1/4
BLUEFIELD      LGT SNOW  30  25  81 N7        30.03S
LEWISBURG      LGT SNOW  31  29  94 NW6       30.05R
$$

WVZ047-051600-
Northern Mountains of West Virginia

CITY           SKY/WX    TMP DP  RH WIND       PRES   REMARKS
ELKINS         HVY SNOW  21  18  88 N9        30.12R VSB 1/4
$$

WVZ052-051600-
Eastern Panhandle of West Virginia

CITY           SKY/WX    TMP DP  RH WIND       PRES   REMARKS
MARTINSBURG    SNOW      27  23  85 NW9       30.20R VSB 1/4
PETERSBURG     SNOW      26  24  92 CALM        N/A
$$



USA.gov is the U.S. government's official web portal to all federal, state and local government web resources and services.